This is the latest recevied weather packets stored in our database for station/object KC4GS-13. If no packets are shown the sender has not sent any weather packets the latest 10 day(s).
| Time | Temp. | Humidity | Pressure | Rain* | Wind** | Luminosity | Snow |
|---|---|---|---|---|---|---|---|
| 1777507863 | 25° C | 75% | 1009.9 hPa | 0 mm | - | 0 W/m² | - |
| 1777507561 | 25° C | 74% | 1010 hPa | 0 mm | - | 1 W/m² | - |
| 1777507257 | 25° C | 74% | 1010.3 hPa | 0 mm | - | 3 W/m² | - |
| 1777506955 | 25.56° C | 75% | 1010.2 hPa | 0 mm | - | 7 W/m² | - |
| 1777506652 | 25.56° C | 74% | 1010.1 hPa | 0 mm | - | 8 W/m² | - |
| 1777506348 | 25.56° C | 73% | 1010 hPa | 0 mm | - | 10 W/m² | - |
| 1777506044 | 25.56° C | 73% | 1010 hPa | 0 mm | - | 18 W/m² | - |
| 1777505739 | 26.11° C | 72% | 1010 hPa | 0 mm | - | 31 W/m² | - |
| 1777505438 | 26.11° C | 71% | 1010.2 hPa | 0 mm | - | 32 W/m² | - |
| 1777505134 | 26.67° C | 69% | 1009.9 hPa | 0 mm | - | 17 W/m² | - |
| 1777504831 | 26.67° C | 69% | 1010.1 hPa | 0 mm | - | 24 W/m² | - |
| 1777504528 | 26.67° C | 69% | 1010.4 hPa | 0 mm | - | 35 W/m² | - |
| 1777504223 | 26.67° C | 68% | 1010.2 hPa | 0 mm | - | 35 W/m² | - |
| 1777503920 | 26.67° C | 67% | 1010.1 hPa | 0 mm | - | 35 W/m² | - |
| 1777503616 | 27.22° C | 67% | 1010.4 hPa | 0 mm | - | 39 W/m² | - |
| 1777503313 | 27.22° C | 66% | 1010.2 hPa | 0 mm | - | 51 W/m² | - |
| 1777503009 | 27.22° C | 65% | 1010.1 hPa | 0 mm | - | 54 W/m² | - |
| 1777502707 | 27.22° C | 65% | 1010 hPa | 0 mm | - | 66 W/m² | - |
| 1777502403 | 27.78° C | 66% | 1010.1 hPa | 0 mm | - | 78 W/m² | - |
| 1777502100 | 27.78° C | 66% | 1010.1 hPa | 0 mm | - | 90 W/m² | - |
| 1777501797 | 28.33° C | 64% | 1010 hPa | 0 mm | - | 78 W/m² | - |
| 1777501495 | 28.33° C | 65% | 1009.8 hPa | 0 mm | - | 86 W/m² | - |
| 1777501191 | 28.89° C | 63% | 1009.9 hPa | 0 mm | - | 104 W/m² | - |
| 1777500890 | 28.89° C | 63% | 1010.1 hPa | 0 mm | - | 200 W/m² | - |
| 1777500586 | 28.33° C | 63% | 1010.5 hPa | 0 mm | - | 152 W/m² | - |
* Rain latest hour (hover to see other rain measurements)
** Current wind speed in m/s (hover to see current wind gust speed)